Tracking 19908 objects as of 19-Oct-2019
HD Live streaming from Space Station
objects crossing your sky now

CZ-2D DEB

Track CZ-2D DEB now!
10-day predictions


NORAD ID: 43507
Int'l Code: 2018-025E
Perigee: 423.7 km
Apogee: 489.5 km
Inclination: 97.3 °
Period: 93.6 minutes
Semi major axis: 6827 km
RCS: Unknown
Launch date: March 17, 2018
Source: People's Republic of China (PRC)
Launch site: Jiuquan Satellite Launch Center, China (JSC)

Note: This is SATELLITE DEBRIS
aabbcc
Your satellite tracking list
Your tracking list is empty




NASA's NSSDC Master Catalog

Two Line Element Set (TLE):
1 43507U 18025E   19291.25793686  .00004040  00000-0  10321-3 0  9991
2 43507  97.2750  48.4954 0048175  39.7796 320.6965 15.38856731 86609
Source of the keplerian elements: AFSPC